Tracking 31080 objects as of 20-Jul-2025
HD Live streaming from Space Station
objects crossing your sky now

DELTA 2 R/B(2)

Track DELTA 2 R/B(2) now!


NORAD ID: 23018
Int'l Code: 1994-013C
Perigee: 2,967.7 km
Apogee: 37,092.2 km
Inclination: 25.5 °
Period: 711.5 minutes
Semi major axis: 26400 km
RCS: 3.4432 m2 (large)
Launch date: February 19, 1994
Source: United States (US)
Launch site: AIR FORCE EASTERN TEST RANGE (AFETR)

Note: This is a ROCKET BODY
Your satellite tracking list
Your tracking list is empty




NASA's NSSDC Master Catalog

Two Line Element Set (TLE):
1 23018U 94013C   25200.74999415 -.00000267  00000-0  00000-0 0  9994
2 23018  25.4528 293.9372 6462740 117.0937 321.4416  2.02383105232017
Source of the keplerian elements: AFSPC